User: anonymous   Login
Location: Goheenville
(40.9070°N, 79.3720°W)
Time: 08:58:23
(UTC-04:00)
Language:

Cosmos 1727 Rocket - Orbit

View from above orbital plane
View from above orbital plane
View from above satellite
View from above satellite

Ground track
Ground track

The orbit data is extracted from the following two-line orbital elements,

1 16511U 86008B   17145.40513980 +.00000032 +00000-0 +17528-4 0  9996
2 16511 082.9463 236.8056 0023714 349.7430 063.2823 13.75807187572886
Epoch (UTC): 25 May 2017 09:43:24
Eccentricity: 0.0023714
inclination: 82.9463°
perigee height: 961 km
apogee height: 996 km
right ascension of ascending node: 236.8056°
argument of perigee: 349.7430°
revolutions per day: 13.75807187
mean anomaly at epoch: 63.2823°
orbit number at epoch: 57288

The dashed part of the orbit path shows where the satellite is in the earth's shadow,  

DLR